Dewpoint
62 62 62 61 61 61 61 61 61 61 61 61 61 61 61 61 61 61 61 61 61 61 61 61 61 61 61 59 59 59 60 60 59 59 59 58 59 59 59 60 61 61 61 61 61 61 62 62 62 61 60 60 60 60 60 59 59 59 59 58 58 58 59 59 59 60 60 60 60
62 62 62 61 61 61 61 61 60 61 61 61 61 61 61 61 61 61 61 61 61 61 62 62 61 61 60 59 59 59 60 59 59 59 58 58 58 58 59 59 59 59 60 60 61 61 61 62 62 61 60 60 60 60 59 59 59 58 57 57 56 57 57 57 57 57 58 58 59
62 62 62 62 61 61 60 60 60 60 61 61 61 61 61 61 61 61 61 61 61 62 62 62 61 60 59 58 59 59 59 59 59 58 58 58 58 58 58 58 59 59 59 60 60 61 61 62 61 60 60 59 59 59 59 58 58 57 57 56 55 55 56 55 55 56 57 57 58
62 62 62 62 61 61 60 60 60 60 60 61 61 61 61 61 61 61 61 61 61 61 61 61 60 59 59 59 59 59 59 59 59 58 57 57 57 57 58 58 58 58 58 59 60 61 61 61 60 59 59 59 59 58 57 56 56 56 56 54 54 54 54 54 54 54 54 55 56
61 61 61 61 61 61 60 60 60 60 60 61 61 61 61 61 61 61 61 60 60 60 61 61 60 59 58 59 59 59 59 59 59 58 57 56 56 56 57 57 57 58 58 59 60 61 61 60 59 59 58 57 56 56 55 54 55 55 54 53 54 54 54 54 53 54 54 54 55
60 61 61 62 61 61 61 61 60 60 61 61 61 60 60 61 61 60 60 60 60 60 60 60 60 59 58 59 59 59 59 59 59 59 58 56 56 56 56 57 58 59 59 59 59 60 60 60 59 57 56 55 54 54 54 54 54 54 54 53 53 54 54 54 53 53 54 54 54
61 61 61 62 61 61 61 60 61 61 61 61 60 60 60 61 60 60 60 60 59 58 58 58 58 58 58 57 58 58 58 58 58 58 58 56 56 55 56 56 58 58 59 58 59 59 59 59 58 56 54 54 53 53 53 54 54 54 54 54 53 53 54 54 53 53 53 53 53
61 61 61 61 61 60 60 60 60 60 60 60 60 60 60 60 60 60 60 59 58 57 57 57 57 57 57 57 56 56 56 56 56 57 57 56 55 55 55 56 56 57 58 58 58 59 59 58 57 56 55 54 53 53 53 53 54 54 54 54 52 52 52 53 52 52 52 52 53
62 61 61 61 60 60 60 60 60 60 60 60 60 60 60 60 60 59 59 59 57 57 57 56 56 56 56 56 56 55 55 55 55 55 56 56 55 55 55 55 55 56 57 57 58 58 58 57 56 55 55 54 54 53 52 53 54 54 54 54 52 51 50 50 51 51 51 52 52
62 61 61 61 60 60 60 60 60 60 60 60 60 60 60 59 59 59 59 57 57 56 56 56 55 55 55 55 55 55 55 55 56 56 56 56 56 55 55 55 55 55 56 56 57 57 57 56 55 55 54 54 54 53 53 53 53 53 53 52 52 51 50 49 50 50 51 51 51
62 61 61 61 60 60 60 59 60 60 60 59 59 60 60 59 59 59 58 57 56 56 56 55 55 55 55 55 55 55 55 56 56 56 55 55 55 55 54 54 54 54 55 55 56 56 56 55 54 53 52 52 52 52 52 53 53 52 51 50 50 50 50 49 49 49 50 50 50
61 61 61 61 61 60 60 59 59 59 59 59 59 60 60 60 59 59 58 57 56 56 55 55 55 55 55 55 55 55 55 55 56 55 55 55 55 54 54 54 54 54 54 54 54 54 54 54 53 52 51 51 51 51 51 52 52 51 50 50 50 49 49 47 47 47 48 49 49
60 60 60 60 60 60 60 59 59 59 59 59 59 59 60 60 59 59 58 57 56 56 56 55 55 55 55 55 55 55 55 55 55 55 55 55 54 54 54 53 53 53 53 53 53 53 53 53 52 51 51 50 50 50 51 51 51 50 50 49 49 49 48 47 47 47 47 48 49
57 58 59 59 59 60 60 59 59 59 59 59 59 59 60 60 59 59 58 57 57 56 56 55 55 55 55 55 54 54 54 55 54 54 54 54 54 53 53 53 52 52 52 51 52 52 52 51 51 51 51 50 50 50 50 50 50 50 49 49 49 48 48 47 47 47 47 48 48
54 55 56 57 58 59 59 59 59 59 59 59 59 59 59 59 59 59 58 57 57 57 56 56 56 55 55 54 54 54 54 54 54 54 54 54 53 53 52 52 51 51 50 50 50 50 50 50 50 50 50 50 49 49 49 49 49 49 48 48 48 47 47 46 46 47 47 47 47
52 52 53 55 57 58 59 59 59 59 59 59 59 59 59 59 59 59 58 57 57 57 56 56 56 55 55 55 55 54 54 54 54 54 53 53 52 52 51 51 50 50 50 50 50 49 49 49 49 49 49 49 48 48 47 47 47 47 47 47 47 47 46 46 46 46 47 47 46
50 50 51 54 55 57 59 59 59 59 59 59 59 59 59 59 59 59 58 57 57 56 56 56 56 56 55 55 55 54 54 54 54 53 53 52 51 51 50 50 50 50 49 49 49 48 48 48 48 48 48 48 47 47 47 47 47 46 46 46 46 46 46 46 46 46 46 46 46
48 49 50 52 54 56 57 58 58 58 59 59 59 59 59 59 59 59 58 58 57 56 55 55 55 55 55 54 54 54 54 54 54 53 52 51 50 50 50 49 49 49 49 49 48 47 47 47 47 47 47 47 46 46 45 46 46 45 45 45 45 45 45 45 45 45 46 45 45
46 47 48 50 51 53 54 55 56 56 56 57 58 58 59 59 59 59 58 57 57 56 55 55 54 54 54 54 54 54 54 54 53 52 51 50 49 49 48 48 48 48 48 47 47 47 46 46 46 46 46 45 45 45 45 45 45 45 45 45 45 45 45 44 44 44 45 45 45
45 46 46 47 49 50 51 52 52 53 53 54 55 56 57 57 58 58 57 57 56 55 55 54 54 53 53 53 53 52 51 51 51 50 49 48 48 47 47 46 46 46 46 46 46 45 45 45 45 45 45 45 44 44 44 44 44 44 45 45 45 45 45 44 43 43 44 44 45
44 44 45 45 46 47 48 48 49 50 50 51 52 53 54 54 54 55 55 54 54 54 54 54 53 52 51 51 50 49 48 48 48 47 47 46 46 45 45 45 45 45 45 45 45 45 45 45 45 45 45 44 44 44 44 44 44 44 45 45 45 45 44 44 44 43 43 43 44
43 43 44 44 45 45 46 46 47 48 49 49 50 50 50 51 51 51 51 52 53 53 52 52 51 50 50 49 47 45 45 45 45 45 45 45 45 45 45 45 45 44 44 44 44 44 44 44 44 44 44 44 44 44 43 44 44 44 44 44 44 43 43 43 43 43 43 43 43
42 42 43 44 45 45 46 46 46 47 48 48 48 48 48 48 48 48 49 50 50 50 50 50 49 48 47 46 45 44 43 43 43 43 44 44 44 44 44 44 44 44 44 43 43 44 44 44 44 44 44 44 43 43 44 44 44 44 44 43 43 42 42 42 42 42 42 42 42
41 42 43 44 45 45 45 45 46 46 47 47 47 47 47 46 46 47 48 48 48 48 48 47 46 46 45 45 44 43 43 43 42 42 43 43 43 43 44 44 44 44 43 43 43 44 44 43 43 43 43 43 43 43 43 43 44 44 43 43 42 42 41 41 41 41 41 41 41
41 42 43 44 44 44 45 45 45 45 45 45 45 45 45 45 46 46 46 46 46 45 45 45 44 44 44 43 43 43 43 43 42 43 43 43 43 44 44 44 44 44 44 44 44 45 45 44 43 43 43 42 42 42 41 42 43 43 42 42 42 42 41 41 41 41 41 41 41
42 43 43 43 43 44 44 45 45 45 45 45 45 45 45 45 45 45 45 45 44 44 44 43 43 44 44 43 43 43 43 43 43 43 43 43 43 44 44 44 44 44 44 45 45 45 45 45 45 43 42 41 41 41 41 41 42 42 41 42 42 42 42 41 41 41 40 40 39
42 43 43 43 43 43 44 44 44 44 44 44 44 44 44 44 44 44 44 44 43 43 43 43 43 44 44 43 43 44 44 44 44 44 43 43 43 43 43 43 43 44 44 45 46 46 46 46 45 45 43 41 41 41 41 41 41 41 41 41 41 41 41 41 41 41 41 39 38
42 42 42 42 43 43 43 43 43 43 43 43 43 43 43 43 43 43 43 43 43 43 43 43 43 44 44 44 44 44 44 44 44 44 44 44 44 43 43 43 43 44 45 46 46 46 45 45 45 45 44 42 42 42 42 42 41 41 41 41 41 41 41 41 41 41 40 40 39
42 42 43 43 43 43 42 42 42 43 42 42 42 42 42 42 43 43 43 43 43 43 43 43 43 44 44 44 43 43 43 44 44 44 44 44 43 43 43 43 43 44 45 45 45 45 45 44 44 44 45 44 43 43 43 43 42 41 41 41 41 41 40 40 40 40 40 39 39
42 43 43 43 42 42 42 42 42 42 42 42 41 41 42 42 42 42 42 43 43 43 43 43 43 43 43 42 42 42 42 42 43 43 43 42 42 42 42 41 40 41 43 45 44 44 44 43 43 43 44 45 43 43 43 42 42 41 41 40 40 40 40 39 39 39 39 39 39
42 43 43 43 42 42 41 41 41 41 41 41 41 42 42 42 42 42 43 42 42 42 42 42 42 42 41 42 41 41 41 41 42 42 42 42 42 41 40 38 37 38 41 44 43 43 43 43 43 43 43 43 43 42 41 41 41 41 41 41 40 39 39 39 39 39 39 39 39
42 43 43 42 42 41 41 41 41 41 41 41 41 42 42 42 42 42 42 42 42 42 42 41 41 41 41 41 41 41 41 41 41 41 42 41 41 39 38 36 35 36 39 43 43 42 42 43 43 43 43 43 43 41 40 41 41 41 41 41 40 39 39 39 39 39 38 38 39
42 42 43 43 42 41 41 41 41 41 41 41 42 42 42 42 41 41 41 41 41 41 41 41 41 41 40 40 40 40 40 40 41 41 41 41 40 39 37 36 34 36 39 42 42 42 42 42 43 42 42 42 42 41 39 40 40 40 41 41 40 39 39 39 39 38 38 38 38
41 42 42 43 42 41 41 41 40 41 41 41 41 41 41 41 41 41 41 41 41 41 41 41 41 41 40 40 40 40 40 40 40 41 41 40 40 40 39 37 36 37 40 41 41 42 42 42 42 42 42 42 41 40 40 40 40 40 40 40 40 39 38 38 38 37 37 37 38
41 42 42 43 42 41 41 41 40 41 41 41 41 41 41 41 40 41 41 41 40 40 40 39 39 39 39 39 39 40 40 40 40 40 40 40 40 40 40 39 37 38 40 41 41 41 41 42 42 42 41 42 40 40 40 40 40 39 39 39 38 37 36 36 36 36 35 36 36
41 41 42 42 42 41 41 40 40 41 41 41 41 40 40 40 40 40 41 41 40 39 38 38 38 38 38 38 39 39 40 40 39 39 39 39 39 39 39 39 38 38 39 40 41 41 41 41 41 41 41 41 40 40 40 40 39 38 38 38 37 36 35 34 34 33 33 34 36
41 41 41 42 42 41 41 40 41 41 41 41 41 40 40 40 40 40 40 40 39 38 37 37 38 38 38 38 38 38 39 38 38 38 39 39 39 39 39 38 37 37 38 40 40 41 41 41 41 41 41 41 39 39 39 39 38 38 37 37 35 34 33 32 32 32 33 34 35
41 41 41 41 42 41 41 41 41 41 41 41 41 40 40 39 39 39 40 40 39 38 37 37 37 37 37 37 37 37 37 37 38 38 38 39 39 38 38 38 37 36 37 38 40 40 41 41 41 41 41 40 39 39 39 38 37 37 36 36 34 32 31 31 31 32 33 34 36
40 41 41 41 41 41 41 41 41 41 41 41 41 40 40 39 39 39 40 40 39 39 38 38 37 36 36 36 36 36 36 36 37 37 37 38 38 38 38 38 36 36 36 37 39 40 40 41 41 41 41 40 39 39 38 37 37 36 35 35 33 32 31 30 31 32 33 35 36
40 41 41 41 41 41 41 41 41 41 41 41 40 39 39 39 39 40 40 40 39 39 39 38 37 36 36 36 36 36 36 36 37 37 37 37 38 38 38 37 36 36 36 36 38 39 40 41 41 41 41 40 38 38 37 37 36 35 35 34 33 32 31 30 31 32 33 34 36
40 41 41 41 41 41 41 41 41 41 41 41 40 39 39 40 40 40 40 40 39 39 39 38 36 36 36 37 37 36 36 36 36 37 37 37 37 38 38 37 36 36 36 36 37 39 40 41 41 41 41 39 37 37 37 36 36 35 34 33 33 32 32 31 31 31 32 33 36